EW8669 Weather Reports


Display with metric or nautical units.
time (UTC)temp
F
wind
direction
speed
MPH
gust
MPH
rain 1hr
in
rain 24hr
in
rain mn
in
humidity
%
barometer
mb
20260906002524 77 0 0.0 0.0 0.00 1.01 1.01 91 1012.5
20260906002025 77 0 0.0 0.0 0.00 1.01 1.01 91 1012.6
20260906001554 77 0 0.0 0.0 0.00 1.01 1.01 91 1012.6
20260906001025 77 0 0.0 0.0 0.00 1.01 1.01 91 1012.7
20260906000524 77 0 0.0 0.0 0.00 1.01 1.01 91 1012.6
20260906000058 77 0 0.0 0.0 0.00 1.01 1.01 91 1012.4
20260905235526 77 0 0.0 0.0 0.00 1.01 1.01 91 1012.6
20260905235028 77 0 0.0 0.0 0.00 1.01 1.01 91 1012.6
20260905234547 77 0 0.0 0.0 0.00 1.01 1.01 91 1012.6
20260905234026 77 0 0.0 0.0 0.00 1.01 1.01 91 1012.5
20260905233527 77 0 0.0 0.0 0.00 1.01 1.01 91 1012.3
20260905233102 78 0 0.0 0.0 0.00 1.01 1.01 91 1012.4
20260905232525 77 0 0.0 0.0 0.00 1.01 1.01 91 1012.5
20260905232025 77 0 0.0 0.0 0.00 1.01 1.01 91 1012.4
20260905231551 77 0 0.0 0.0 0.00 1.01 1.01 92 1012.4
20260905231028 77 0 0.0 0.0 0.00 1.01 1.01 92 1012.7
20260905230527 77 0 0.0 0.0 0.00 1.01 1.01 92 1012.7
20260905230050 77 0 0.0 0.0 0.00 1.01 1.01 92 1012.7
20260905225524 76 0 0.0 6.0 0.00 1.03 1.01 93 1012.8
20260905225024 77 0 0.0 6.0 0.00 1.03 1.01 93 1012.9
20260905224543 76 150 2.0 9.0 0.00 1.03 1.01 93 1012.9
20260905224032 76 207 6.0 9.0 0.00 1.03 1.01 93 1012.8
20260905223525 76 229 1.0 6.0 0.00 1.03 1.01 93 1012.9
20260905223049 76 0 0.0 0.0 0.00 1.03 1.01 93 1012.4
20260905222525 76 0 0.0 4.0 0.00 1.03 1.01 93 1012.3
20260905222030 76 0 0.0 6.0 0.00 1.03 1.01 92 1012.2
20260905221601 76 67 1.0 8.0 0.00 1.03 1.01 92 1012.4
20260905221028 76 74 3.0 8.0 0.00 1.03 1.01 92 1012.5
20260905220527 76 79 3.0 8.0 0.01 1.03 1.01 92 1012.5
20260905220048 76 51 0.0 2.0 0.02 1.03 1.01 92 1012.1
20260905215524 76 0 0.0 3.0 0.06 1.37 1.01 92 1011.8
20260905215027 76 51 1.0 4.0 0.08 1.37 1.01 92 1011.7
20260905214556 76 51 1.0 4.0 0.21 1.37 1.01 91 1011.6
20260905214024 76 66 2.0 5.0 0.54 1.37 1.01 91 1011.7
20260905213525 77 62 2.0 5.0 0.92 1.37 1.01 91 1011.8
20260905213053 77 65 2.0 10.0 1.00 1.37 1.01 91 1011.9
20260905212525 77 64 1.0 10.0 1.00 1.37 1.01 91 1011.9
20260905212025 77 102 7.0 12.0 1.00 1.37 1.01 91 1012.1
20260905211550 76 124 8.0 16.0 1.00 1.37 1.01 90 1012.1
20260905211023 76 121 13.0 18.0 1.00 1.37 1.01 89 1012.1
20260905210525 75 118 13.0 18.0 0.98 1.35 0.99 89 1012.2
20260905210050 76 109 13.0 18.0 0.97 1.34 0.98 88 1012.3
20260905205526 76 120 12.0 25.0 0.93 1.30 0.94 87 1012.7
20260905205024 77 166 13.0 32.0 0.92 1.29 0.93 85 1012.6
20260905204552 78 100 11.0 32.0 0.75 1.12 0.76 83 1013.4
20260905204026 80 176 10.0 24.0 0.41 0.78 0.42 82 1014.5
20260905203524 83 293 10.0 23.0 0.05 0.42 0.06 78 1013.8
20260905203048 88 281 10.0 23.0 0.00 0.37 0.01 72 1012.8
20260905202524 91 0 0.0 2.0 0.00 0.37 0.01 70 1012.3
20260905202024 92 0 0.0 4.0 0.00 0.37 0.01 66 1011.7
20260905201546 92 0 0.0 4.0 0.00 0.37 0.01 67 1011.7
20260905201025 92 243 2.0 4.0 0.00 0.37 0.01 67 1011.7
20260905200528 92 0 0.0 6.0 0.00 0.37 0.01 69 1011.5
20260905200046 92 0 2.0 6.0 0.00 0.37 0.01 66 1011.6
20260905195526 92 259 2.0 4.0 0.00 0.37 0.01 66 1011.6
20260905195025 92 217 1.0 5.0 0.00 0.37 0.01 66 1011.7
20260905194549 92 225 1.0 7.0 0.00 0.37 0.01 66 1011.8
20260905194023 92 225 3.0 7.0 0.00 0.37 0.01 66 1012.0
20260905193524 92 225 4.0 7.0 0.00 0.37 0.01 66 1012.0
20260905193046 92 249 3.0 10.0 0.00 0.37 0.01 68 1012.0
20260905192527 91 333 5.0 10.0 0.00 0.37 0.01 67 1011.9
20260905192025 91 0 0.0 4.0 0.00 0.37 0.01 71 1012.0
20260905191547 90 0 0.0 3.0 0.00 0.37 0.01 71 1012.1
20260905191024 90 0 0.0 0.0 0.00 0.37 0.01 70 1012.1
20260905190527 91 0 0.0 0.0 0.00 0.37 0.01 69 1012.1
20260905190051 91 0 0.0 0.0 0.00 0.37 0.01 69 1012.2
20260905185524 91 0 0.0 0.0 0.00 0.37 0.01 69 1012.2
20260905185025 91 0 0.0 0.0 0.00 0.37 0.01 70 1012.3
20260905184554 91 0 0.0 0.0 0.00 0.37 0.01 69 1012.3
20260905184025 90 0 0.0 0.0 0.00 0.37 0.01 70 1012.4
20260905183525 90 0 0.0 0.0 0.00 0.37 0.01 69 1012.5
20260905183052 90 0 0.0 0.0 0.00 0.37 0.01 71 1012.4
20260905182524 90 0 0.0 0.0 0.00 0.37 0.01 71 1012.4
20260905182024 89 0 0.0 0.0 0.00 0.37 0.01 72 1012.4
20260905181545 89 0 0.0 0.0 0.00 0.37 0.01 71 1012.6
20260905181024 89 0 0.0 0.0 0.00 0.37 0.01 73 1012.5
20260905180525 89 0 0.0 0.0 0.00 0.37 0.01 73 1012.7
20260905180100 89 0 0.0 0.0 0.00 0.37 0.01 74 1012.6
20260905175524 89 0 0.0 0.0 0.00 0.37 0.01 73 1012.7
20260905175023 89 0 0.0 0.0 0.00 0.37 0.01 74 1012.8
20260905174553 89 0 0.0 0.0 0.00 0.37 0.01 75 1012.9
20260905174021 89 0 0.0 0.0 0.00 0.37 0.01 75 1013.0
20260905173524 89 0 0.0 0.0 0.00 0.37 0.01 75 1013.1
20260905173109 89 0 0.0 5.0 0.00 0.37 0.01 74 1013.2
20260905172525 89 0 0.0 11.0 0.00 0.37 0.01 75 1013.3
20260905172024 89 246 6.0 11.0 0.00 0.37 0.01 74 1013.3
20260905171553 89 245 3.0 6.0 0.00 0.37 0.01 75 1013.4
20260905171024 89 257 0.0 4.0 0.00 0.37 0.01 76 1013.5
20260905170522 89 261 2.0 4.0 0.00 0.37 0.01 74 1013.4
20260905170048 89 19 1.0 4.0 0.00 0.37 0.01 76 1013.5
20260905165527 89 0 0.0 3.0 0.00 0.37 0.01 75 1013.6
20260905165024 89 0 0.0 3.0 0.00 0.37 0.01 75 1013.7
20260905164600 89 0 1.0 3.0 0.00 0.37 0.01 75 1013.8
20260905164024 89 116 1.0 3.0 0.00 0.37 0.01 75 1013.9
20260905163523 89 0 0.0 0.0 0.00 0.37 0.01 76 1014.1
20260905163051 89 0 0.0 0.0 0.00 0.37 0.01 77 1014.2
20260905162523 88 0 0.0 0.0 0.00 0.37 0.01 80 1014.3
20260905162023 87 0 0.0 0.0 0.00 0.37 0.01 80 1014.3
20260905161547 87 0 0.0 0.0 0.00 0.37 0.01 80 1014.3
20260905161025 86 0 0.0 0.0 0.00 0.37 0.01 80 1014.4
20260905160524 86 0 0.0 0.0 0.00 0.37 0.01 80 1014.3
20260905160054 86 0 0.0 0.0 0.00 0.37 0.01 80 1014.5
20260905155529 86 0 0.0 0.0 0.00 0.37 0.01 81 1014.5
20260905155024 86 0 0.0 0.0 0.00 0.37 0.01 80 1014.6
20260905154600 86 0 0.0 0.0 0.00 0.37 0.01 81 1014.7
20260905154028 86 0 0.0 0.0 0.00 0.37 0.01 81 1014.7
20260905153524 86 0 0.0 0.0 0.00 0.37 0.01 81 1014.8
20260905153051 85 0 0.0 0.0 0.00 0.37 0.01 82 1014.7
20260905152524 85 0 0.0 0.0 0.00 0.37 0.01 82 1014.8
20260905152024 85 0 0.0 0.0 0.00 0.37 0.01 82 1014.9
20260905151547 85 0 0.0 0.0 0.00 0.37 0.01 83 1014.9
20260905151025 85 0 0.0 0.0 0.00 0.37 0.01 84 1014.9
20260905150525 85 0 0.0 0.0 0.00 0.37 0.01 84 1014.7
20260905150044 85 0 0.0 0.0 0.00 0.37 0.01 84 1014.8
20260905145521 85 0 0.0 0.0 0.00 0.37 0.01 84 1014.7
20260905145024 84 0 0.0 9.0 0.00 0.37 0.01 85 1014.7
20260905144552 84 0 1.0 9.0 0.00 0.37 0.01 85 1014.6
20260905144024 84 269 6.0 9.0 0.00 0.37 0.01 85 1014.6
20260905143524 84 246 5.0 9.0 0.00 0.37 0.01 86 1014.7
20260905143049 84 248 5.0 9.0 0.00 0.37 0.01 86 1014.6
20260905142525 83 268 4.0 9.0 0.00 0.37 0.01 87 1014.6
20260905142025 83 231 3.0 5.0 0.00 0.37 0.01 87 1014.6
20260905141547 83 221 2.0 5.0 0.00 0.37 0.01 88 1014.5
20260905141025 83 0 0.0 0.0 0.00 0.37 0.01 89 1014.6
20260905140529 83 0 0.0 0.0 0.00 0.37 0.01 88 1014.6
20260905140058 82 0 0.0 0.0 0.00 0.37 0.01 89 1014.5
20260905135523 82 0 0.0 0.0 0.00 0.37 0.01 89 1014.5
20260905135023 82 0 0.0 0.0 0.00 0.37 0.01 89 1014.5
20260905134600 82 0 0.0 0.0 0.00 0.37 0.01 90 1014.7
20260905134024 81 0 0.0 0.0 0.00 0.37 0.01 90 1014.6
20260905133524 81 0 0.0 0.0 0.00 0.37 0.01 91 1014.5
20260905133050 81 0 0.0 0.0 0.00 0.37 0.01 91 1014.5
20260905132524 81 0 0.0 0.0 0.00 0.37 0.01 92 1014.4
20260905132025 80 0 0.0 0.0 0.00 0.37 0.01 92 1014.5
20260905131547 80 0 0.0 0.0 0.00 0.37 0.01 93 1014.3
20260905131024 80 0 0.0 0.0 0.00 0.37 0.01 93 1014.5
20260905130524 80 0 0.0 0.0 0.00 0.37 0.01 93 1014.4
20260905130042 79 0 0.0 0.0 0.00 0.37 0.01 93 1014.4
20260905125525 79 0 0.0 0.0 0.00 0.37 0.01 93 1014.5
20260905125023 79 0 0.0 4.0 0.00 0.37 0.01 93 1014.6
20260905124556 79 0 0.0 5.0 0.00 0.37 0.01 94 1014.5
20260905124025 79 240 3.0 6.0 0.00 0.37 0.01 94 1014.6
20260905123524 79 242 3.0 6.0 0.00 0.37 0.01 94 1014.5
20260905123047 78 231 5.0 6.0 0.00 0.37 0.01 94 1014.4
20260905122525 78 222 4.0 6.0 0.00 0.37 0.01 94 1014.4
20260905122028 78 197 4.0 6.0 0.00 0.37 0.01 94 1014.5
20260905121559 78 221 3.0 5.0 0.00 0.37 0.01 94 1014.5
20260905121023 78 225 3.0 5.0 0.00 0.37 0.01 94 1014.5
20260905120526 78 225 1.0 5.0 0.00 0.37 0.01 94 1014.4
20260905115524 78 0 0.0 0.0 0.00 0.37 0.01 94 1014.2
20260905115021 78 0 0.0 0.0 0.00 0.37 0.01 94 1014.2
20260905114600 78 0 0.0 0.0 0.00 0.37 0.01 94 1014.1
20260905114024 78 0 0.0 0.0 0.00 0.37 0.01 94 1014.0
20260905113528 78 0 0.0 0.0 0.00 0.37 0.01 94 1014.0
20260905113054 78 0 0.0 0.0 0.00 0.37 0.01 94 1013.9
20260905112525 78 0 0.0 0.0 0.00 0.37 0.01 94 1013.9
20260905112025 77 0 0.0 0.0 0.00 0.37 0.01 94 1013.8
20260905111646 77 0 0.0 0.0 0.00 0.37 0.01 94 1013.9
20260905111023 77 0 0.0 0.0 0.00 0.37 0.01 94 1013.8
20260905110526 77 0 0.0 0.0 0.00 0.37 0.01 94 1013.7
20260905110051 77 0 0.0 0.0 0.00 0.37 0.01 94 1013.6
20260905105524 77 0 0.0 0.0 0.00 0.37 0.01 94 1013.6
20260905105024 77 0 0.0 0.0 0.00 0.37 0.01 94 1013.5
20260905104547 77 0 0.0 0.0 0.00 0.37 0.01 94 1013.6
20260905104024 76 0 0.0 0.0 0.00 0.37 0.01 94 1013.5
20260905103524 76 0 0.0 0.0 0.00 0.37 0.01 94 1013.5
20260905103044 76 0 0.0 0.0 0.00 0.37 0.01 94 1013.4
20260905102524 76 0 0.0 0.0 0.00 0.37 0.01 94 1013.4
20260905102025 76 0 0.0 0.0 0.00 0.37 0.01 94 1013.4
20260905101555 76 0 0.0 0.0 0.00 0.37 0.01 94 1013.4
20260905101028 76 0 0.0 0.0 0.00 0.37 0.01 94 1013.4
20260905100524 76 0 0.0 0.0 0.00 0.37 0.01 93 1013.4
20260905100057 76 0 0.0 0.0 0.00 0.37 0.01 93 1013.4
20260905095523 76 0 0.0 0.0 0.00 0.37 0.01 93 1013.4
20260905095027 76 0 0.0 0.0 0.00 0.37 0.01 93 1013.3
20260905094552 76 0 0.0 0.0 0.00 0.37 0.01 93 1013.3
20260905094024 76 0 0.0 0.0 0.00 0.37 0.01 93 1013.3
20260905093525 76 0 0.0 0.0 0.00 0.37 0.01 93 1013.4
20260905093054 76 0 0.0 0.0 0.00 0.37 0.01 93 1013.3
20260905092526 76 0 0.0 0.0 0.00 0.37 0.01 93 1013.3
20260905092024 76 0 0.0 0.0 0.00 0.37 0.01 93 1013.6
20260905091556 76 0 0.0 0.0 0.00 0.37 0.01 93 1013.6
20260905091026 76 0 0.0 0.0 0.00 0.37 0.01 93 1013.5
20260905090523 76 0 0.0 0.0 0.00 0.37 0.01 93 1013.6
20260905090051 76 0 0.0 0.0 0.00 0.37 0.01 93 1013.6
20260905085523 76 0 0.0 0.0 0.00 0.37 0.01 93 1013.6
20260905085024 77 0 0.0 0.0 0.00 0.37 0.01 92 1013.6
20260905084548 77 0 0.0 0.0 0.00 0.37 0.01 92 1013.6
20260905084024 77 0 0.0 0.0 0.00 0.37 0.01 93 1013.5
20260905083526 77 0 0.0 0.0 0.00 0.37 0.01 92 1013.5
20260905083044 77 0 0.0 0.0 0.00 0.37 0.01 93 1013.5
20260905082523 78 0 0.0 0.0 0.00 0.37 0.01 93 1013.3
20260905082025 78 0 0.0 0.0 0.00 0.37 0.01 93 1013.5
20260905081552 78 0 0.0 0.0 0.00 0.37 0.01 93 1013.4
20260905081023 78 0 0.0 0.0 0.00 0.37 0.01 93 1013.3
20260905080524 78 0 0.0 0.0 0.00 0.37 0.01 93 1013.3
20260905080051 78 0 0.0 0.0 0.00 0.37 0.01 93 1013.3
20260905075524 78 0 0.0 0.0 0.00 0.37 0.01 93 1013.2
20260905075023 78 0 0.0 4.0 0.00 0.37 0.01 93 1013.3
20260905074547 78 0 0.0 4.0 0.00 0.37 0.01 93 1013.2
20260905074025 78 167 2.0 4.0 0.00 0.37 0.01 93 1013.3
20260905073523 78 167 2.0 5.0 0.00 0.37 0.01 93 1013.3
20260905073043 78 167 3.0 5.0 0.00 0.37 0.01 93 1013.3
20260905072525 78 167 2.0 4.0 0.00 0.37 0.01 93 1013.3
20260905072024 78 192 2.0 5.0 0.00 0.37 0.01 94 1013.3
20260905071553 78 197 2.0 5.0 0.00 0.37 0.01 93 1013.3
20260905071026 78 200 3.0 5.0 0.00 0.37 0.01 93 1013.4
20260905070528 78 116 0.0 3.0 0.00 0.37 0.01 93 1013.4
20260905070057 78 116 1.0 3.0 0.01 0.37 0.01 93 1013.6
20260905065524 78 0 0.0 0.0 0.01 0.37 0.01 93 1013.5
20260905065023 78 0 0.0 3.0 0.01 0.37 0.01 93 1013.6
20260905064602 78 0 0.0 4.0 0.01 0.37 0.01 93 1013.6
20260905064024 78 115 2.0 4.0 0.01 0.37 0.01 93 1013.6
20260905063526 78 115 0.0 3.0 0.01 0.37 0.01 93 1013.8
20260905063056 78 0 1.0 3.0 0.01 0.37 0.01 93 1013.6
20260905062526 77 123 1.0 2.0 0.01 0.37 0.01 93 1013.7
20260905062026 77 0 0.0 2.0 0.01 0.37 0.01 93 1013.7
20260905061548 77 123 1.0 2.0 0.01 0.37 0.01 93 1013.8
20260905061023 78 0 0.0 0.0 0.01 0.37 0.01 92 1013.8
20260905060524 78 0 0.0 0.0 0.01 0.37 0.01 92 1013.8
20260905060052 78 0 0.0 0.0 0.00 0.36 0.00 92 1013.9
20260905055525 78 0 0.0 0.0 0.00 0.36 0.00 92 1013.9
20260905055029 78 0 0.0 0.0 0.00 0.36 0.00 92 1013.9
20260905054551 78 0 0.0 0.0 0.00 0.36 0.00 92 1013.8
20260905054028 78 0 0.0 0.0 0.00 0.36 0.00 92 1014.0
20260905053524 78 0 0.0 0.0 0.00 0.36 0.00 92 1014.2
20260905053054 78 0 0.0 3.0 0.00 0.36 0.00 92 1014.2
20260905052524 78 0 0.0 4.0 0.00 0.36 0.00 92 1014.2
20260905052025 78 175 1.0 4.0 0.00 0.36 0.00 92 1014.2
20260905051554 78 173 2.0 4.0 0.00 0.36 0.00 92 1014.3
20260905051023 78 226 1.0 4.0 0.00 0.36 0.00 91 1014.4
20260905050527 78 317 1.0 4.0 0.00 0.36 0.00 91 1014.3
20260905050058 78 317 2.0 4.0 0.00 0.36 0.00 91 1014.4
20260905045525 78 82 2.0 4.0 0.00 0.36 0.00 91 1014.4
20260905045026 78 0 0.0 2.0 0.00 0.36 0.00 91 1014.6
20260905044551 78 82 0.0 2.0 0.00 0.36 0.00 91 1014.5
20260905044024 78 0 0.0 0.0 0.00 0.36 0.00 90 1014.5
20260905043524 78 0 0.0 2.0 0.00 0.36 0.00 90 1014.6
20260905043046 79 0 0.0 2.0 0.00 0.36 0.00 90 1014.7
20260905042527 79 82 1.0 6.0 0.00 0.36 0.00 90 1014.5
20260905042025 79 0 0.0 6.0 0.00 0.36 0.00 90 1014.6
20260905041556 79 82 2.0 10.0 0.00 0.36 0.00 90 1014.6
20260905041024 79 104 5.0 10.0 0.00 0.36 0.00 91 1014.4
20260905040524 78 130 8.0 11.0 0.00 0.36 0.00 92 1014.6
20260905040051 78 134 7.0 14.0 0.00 0.36 0.00 93 1014.6
20260905035523 77 156 6.0 15.0 0.00 0.36 0.36 94 1014.8
20260905035024 77 147 10.0 15.0 0.00 0.36 0.36 94 1014.9
20260905034543 78 150 9.0 14.0 0.00 0.36 0.36 94 1014.8
20260905034024 77 151 9.0 13.0 0.00 0.36 0.36 95 1014.9
20260905033524 77 173 5.0 9.0 0.00 0.36 0.36 94 1015.1
20260905033042 77 167 4.0 6.0 0.00 0.36 0.36 94 1015.1
20260905032525 76 130 3.0 8.0 0.00 0.36 0.36 94 1015.1
20260905032026 76 137 4.0 8.0 0.00 0.36 0.36 94 1015.2
20260905031555 76 103 3.0 4.0 0.00 0.36 0.36 94 1015.3
20260905031025 76 65 0.0 2.0 0.00 0.36 0.36 94 1015.3
20260905030524 76 65 0.0 2.0 0.00 0.36 0.36 94 1015.3
20260905030052 76 0 0.0 4.0 0.00 0.36 0.36 94 1015.3
20260905025525 76 65 1.0 6.0 0.00 0.36 0.36 94 1015.3
20260905025023 76 65 2.0 6.0 0.00 0.36 0.36 94 1015.4
20260905024550 76 77 2.0 4.0 0.00 0.36 0.36 94 1015.4
20260905024024 76 0 1.0 3.0 0.00 0.36 0.36 94 1015.4
20260905023525 76 336 1.0 3.0 0.00 0.36 0.36 94 1015.3
20260905023043 76 0 0.0 0.0 0.00 0.36 0.36 94 1015.4
20260905022525 76 0 0.0 0.0 0.00 0.36 0.36 94 1015.4
20260905022024 76 0 0.0 0.0 0.00 0.36 0.36 94 1015.5
20260905021553 76 0 0.0 0.0 0.00 0.36 0.36 94 1015.5
20260905021024 76 0 0.0 0.0 0.00 0.36 0.36 94 1015.6
20260905020523 76 0 0.0 0.0 0.00 0.36 0.36 94 1015.6
20260905020051 76 0 0.0 0.0 0.00 0.36 0.36 94 1015.4
20260905015527 76 0 0.0 0.0 0.00 0.36 0.36 94 1015.4
20260905015024 76 0 0.0 0.0 0.00 0.36 0.36 94 1015.5
20260905014554 76 0 0.0 0.0 0.00 0.36 0.36 94 1015.5
20260905014023 76 0 0.0 0.0 0.00 0.36 0.36 94 1015.4
20260905013528 76 0 0.0 0.0 0.00 0.36 0.36 93 1015.1
20260905013042 76 0 0.0 0.0 0.00 0.36 0.36 93 1015.1
20260905012524 76 0 0.0 0.0 0.00 0.36 0.36 93 1015.1
20260905012025 76 0 0.0 0.0 0.00 0.36 0.36 93 1015.1
20260905011556 76 0 0.0 1.0 0.00 0.36 0.36 93 1015.1
20260905011023 76 0 0.0 3.0 0.00 0.36 0.36 93 1014.9
20260905010525 76 0 1.0 4.0 0.00 0.36 0.36 93 1015.0
20260905010048 76 0 1.0 4.0 0.00 0.36 0.36 93 1014.8
20260905005525 76 121 2.0 6.0 0.00 0.36 0.36 93 1014.7
20260905005024 76 122 2.0 6.0 0.00 0.36 0.36 93 1014.6
20260905004550 75 126 3.0 5.0 0.00 0.36 0.36 93 1014.6
20260905004024 75 73 1.0 3.0 0.00 0.36 0.36 93 1014.5
20260905003528 75 0 0.0 0.0 0.00 0.36 0.36 93 1014.6
20260905003046 75 0 0.0 0.0 0.00 0.36 0.36 93 1014.5